EW4543 Weather Reports


Display with metric or nautical units.
time (UTC)temp
F
wind
direction
speed
MPH
gust
MPH
rain 1hr
in
rain 24hr
in
rain mn
in
humidity
%
barometer
mb
20260507181537 75 293 0.0 3.0 0.00 0.00 0.00 59 1014.6
20260507180036 74 244 1.0 3.0 0.00 0.00 0.00 59 1014.7
20260507174539 74 126 1.0 3.0 0.00 0.00 0.00 63 1014.7
20260507173033 73 259 0.0 2.0 0.00 0.00 0.00 63 1014.7
20260507171531 73 243 0.0 3.0 0.00 0.00 0.00 68 1014.7
20260507170039 72 203 0.0 2.0 0.00 0.00 0.00 67 1014.8
20260507164522 71 239 0.0 1.0 0.00 0.00 0.00 69 1014.9
20260507163020 70 135 0.0 2.0 0.00 0.00 0.00 73 1015.0
20260507161517 67 146 0.0 1.0 0.00 0.00 0.00 78 1015.0
20260507160015 64 19 0.0 1.0 0.00 0.00 0.00 92 1015.1
20260507154507 61 19 0.0 1.0 0.00 0.00 0.00 95 1015.1
20260507153005 58 18 0.0 1.0 0.00 0.00 0.00 96 1015.2
20260507151557 55 19 0.0 1.0 0.00 0.00 0.00 96 1015.3
20260507150054 54 19 0.0 1.0 0.00 0.00 0.00 96 1015.3
20260507144552 52 18 0.0 0.0 0.00 0.00 0.00 96 1015.3
20260507143049 51 18 0.0 0.0 0.00 0.00 0.00 96 1015.2
20260507141549 50 19 0.0 0.0 0.00 0.00 0.00 96 1015.2
20260507140051 48 19 0.0 0.0 0.00 0.00 0.00 96 1015.1
20260507134551 48 19 0.0 0.0 0.00 0.00 0.00 96 1015.1
20260507133048 48 18 0.0 0.0 0.00 0.00 0.00 96 1014.9
20260507131558 48 19 0.0 0.0 0.00 0.00 0.00 96 1014.9
20260507124551 49 19 0.0 0.0 0.00 0.00 0.00 95 1014.8
20260507123043 48 19 0.0 0.0 0.00 0.00 0.00 95 1014.7
20260507121545 48 19 0.0 0.0 0.00 0.00 0.00 95 1014.7
20260507120044 48 19 0.0 0.0 0.00 0.00 0.00 95 1014.7
20260507114639 49 19 0.0 0.0 0.00 0.00 0.00 95 1014.7
20260507113039 49 18 0.0 0.0 0.00 0.00 0.00 95 1014.7
20260507111538 49 19 0.0 0.0 0.00 0.00 0.00 95 1014.7
20260507110036 49 19 0.0 0.0 0.00 0.00 0.00 95 1014.6
20260507104535 49 19 0.0 1.0 0.00 0.00 0.00 95 1014.5
20260507103035 49 18 0.0 0.0 0.00 0.00 0.00 95 1014.5
20260507101534 49 18 0.0 0.0 0.00 0.00 0.00 95 1014.5
20260507100038 50 19 0.0 0.0 0.00 0.00 0.00 95 1014.5
20260507094530 50 19 0.0 0.0 0.00 0.00 0.00 95 1014.5
20260507093028 50 19 0.0 0.0 0.00 0.00 0.00 95 1014.6
20260507091526 50 19 0.0 0.0 0.00 0.00 0.00 95 1014.6
20260507090025 50 19 0.0 1.0 0.00 0.00 0.00 95 1014.7
20260507084522 51 19 0.0 0.0 0.00 0.00 0.00 95 1014.9
20260507083022 51 18 0.0 0.0 0.00 0.00 0.00 95 1014.8
20260507081534 51 19 0.0 0.0 0.00 0.00 0.00 95 1014.9
20260507080018 51 18 0.0 0.0 0.00 0.00 0.00 95 1014.9
20260507074525 52 18 0.0 0.0 0.00 0.00 0.00 94 1015.0
20260507073014 52 18 0.0 0.0 0.00 0.00 0.00 94 1015.0
20260507071513 52 19 0.0 0.0 0.00 0.00 0.00 94 1014.9
20260507070018 52 18 0.0 0.0 0.00 0.00 0.00 94 1014.9
20260507064509 53 18 0.0 1.0 0.00 0.00 0.00 94 1014.9
20260507063018 53 19 0.0 0.0 0.00 0.00 0.00 94 1014.9
20260507061509 54 19 0.0 2.0 0.00 0.00 0.00 94 1014.9
20260507060011 54 308 0.0 0.0 0.00 0.00 0.00 94 1014.9
20260507054512 54 308 0.0 0.0 0.00 0.00 0.00 93 1014.9
20260507053008 54 308 0.0 0.0 0.00 0.00 0.00 93 1014.9
20260507051507 55 308 0.0 0.0 0.00 0.00 0.00 93 1014.9
20260507050023 55 308 0.0 0.0 0.00 0.00 0.00 92 1014.8
20260507044507 56 308 0.0 1.0 0.00 0.00 0.00 92 1014.9
20260507043006 56 273 0.0 1.0 0.00 0.00 0.00 91 1014.8
20260507041506 56 273 0.0 1.0 0.00 0.00 0.00 91 1014.7
20260507040006 57 273 0.0 0.0 0.00 0.00 0.00 90 1014.6
20260507034505 58 273 0.0 0.0 0.00 0.00 0.00 89 1014.6
20260507033006 59 273 0.0 1.0 0.00 0.00 0.00 88 1014.3
20260507031503 60 273 0.0 0.0 0.00 0.00 0.00 86 1014.1
20260507030004 61 273 0.0 0.0 0.00 0.00 0.00 83 1014.1
20260507024502 63 273 0.0 0.0 0.00 0.00 0.00 80 1013.9
20260507023002 64 273 0.0 1.0 0.00 0.00 0.00 76 1013.8
20260507021503 67 295 0.0 2.0 0.00 0.00 0.00 72 1013.7
20260507020001 67 284 0.0 2.0 0.00 0.00 0.00 72 1013.7
20260507014605 68 296 0.0 1.0 0.00 0.00 0.00 69 1013.7
20260507013100 67 285 1.0 2.0 0.00 0.00 0.00 70 1013.6
20260507013000 67 290 0.0 2.0 0.00 0.00 0.00 72 1013.7
20260507011558 67 243 1.0 2.0 0.00 0.00 0.00 71 1013.6
20260507010104 67 243 1.0 3.0 0.00 0.00 0.00 71 1013.8
20260507004555 68 316 1.0 4.0 0.00 0.01 0.00 70 1013.9
20260507003054 68 203 0.0 3.0 0.00 0.01 0.00 69 1013.9
20260507001602 68 331 1.0 2.0 0.00 0.01 0.00 69 1013.7
20260507000051 67 241 0.0 2.0 0.00 0.01 0.00 71 1013.8
20260506234549 68 208 1.0 3.0 0.00 0.01 0.00 68 1013.9
20260506233102 68 335 1.0 4.0 0.00 0.01 0.00 68 1014.0
20260506231546 68 222 1.0 4.0 0.00 0.01 0.00 70 1014.0
20260506230045 67 249 0.0 3.0 0.00 0.01 0.00 69 1014.3
20260506224541 67 58 1.0 4.0 0.00 0.01 0.00 67 1014.4
20260506223038 67 25 0.0 5.0 0.00 0.01 0.00 70 1014.7
20260506221536 67 303 1.0 5.0 0.00 0.01 0.00 67 1014.8
20260506220036 69 312 1.0 4.0 0.00 0.01 0.00 66 1015.1
20260506214533 68 257 0.0 3.0 0.00 0.01 0.00 67 1015.3
20260506213032 68 314 1.0 4.0 0.00 0.01 0.00 66 1015.4
20260506211530 68 94 0.0 3.0 0.00 0.01 0.00 65 1015.5
20260506210028 66 236 0.0 3.0 0.00 0.01 0.00 69 1015.7
20260506204525 66 282 2.0 7.0 0.00 0.01 0.00 69 1016.0
20260506203024 65 224 2.0 5.0 0.00 0.01 0.00 67 1016.1
20260506201522 66 153 1.0 4.0 0.00 0.01 0.00 65 1016.2
20260506200019 64 242 1.0 4.0 0.00 0.01 0.00 71 1016.4
20260506194517 63 291 1.0 3.0 0.00 0.01 0.00 71 1016.7
20260506193013 63 297 2.0 4.0 0.00 0.01 0.00 72 1016.9
20260506191511 62 211 1.0 2.0 0.00 0.01 0.00 75 1017.0
20260506190009 61 192 0.0 3.0 0.00 0.01 0.00 74 1017.0
20260506184508 61 123 0.0 2.0 0.00 0.01 0.00 73 1017.1
20260506183005 60 246 0.0 2.0 0.00 0.01 0.00 79 1017.2